Погода в Ярославке

Россия / Ярославская область     57°44′32″N   39°50′23″E
темп.,
°C
ветер,
м/с
пор.,
м/с
влажн.,
%
обл.,
%
осадки,
мм/ч
давл.,
гПа
погр.,
м
21 апреля, ср
ср2100:00+4вюв71380100 0.1 1018739
03:00+2в71496100 2.4 1014649
06:00+1в71698100 4.4 1010789
09:00+1в81698100 8.4 1006867
12:00+4вюв91796100 0.4 1003838
15:00+3ююв91397100 2.3 1003921
18:00+3ююз61093100 0.1 1006854
21:00+3ююз5992100 0.3 1009584
22 апреля, чт
чт2200:00+3ююз4894100 0.1 1010342
03:00+3ююз4895100 0.1 1011257
06:00+3ю4795100 0.0 1012258
09:00+6ююз5984100 0.1 1013492
12:00+9ююз6868100 0.5 10141224
15:00+9юз4873100 1.5 10151225
18:00+10ююз69699 0.2 1015803
21:00+6ю5128450 0.2 1016317
23 апреля, пт
пт2300:00+7ююв512845 0.0 1016286
03:00+5ююв412926 0.0 1015283
06:00+5ююв5119629 0.0 1015327
09:00+11ю610765 0.0 1015553
12:00+14ю7116287 0.1 10151237
15:00+16ююз8115785 1.7 10151613
18:00+14ю6116078 1.3 1015491
21:00+10юв4127767 1.4 1015296
24 апреля, сб
сб2400:00+9юв5138223 0.1 1014317
03:00+7юв5138412 0.1 1012346
06:00+7юв614845 0.0 1011395
09:00+12юв813705 0.3 1009818
12:00+14ююв9125860 0.9 10071726
15:00+14юв81262100 2.8 10051626
18:00+10ю91383100 2.6 10041349
21:00+8зюз3594100 9.0 1003296
25 апреля, вс
вс2500:00+3зюз5897100 7.8 1004598
03:00+4зюз4897100 9.4 1003738
06:00+3зюз4897100 0.7 1004607
09:00+3юз5997100 1.8 1004636
12:00+4з5986100 0.8 1005788
15:00+6зюз7973100 2.1 10061123
18:00+6юз5869100 0.7 10071018
21:00+3юз48846 0.8 1008180